Location: Unspecified
(0.0000°N, 0.0000°E)
Time: 07:42:00
(UTC+00:00)

CUTE-I - Pass Details

Date: 10 December 2017
Orbit: 811 x 825 km, 98.7° (Epoch: 20 April)

Event Time Altitude Azimuth Distance (km) Brightness Sun altitude
Rises 05:13:29 0° 35° (NE) 3,319 ? -9.0°
Reaches altitude 10° 05:16:11 10° 48° (NE) 2,389 ? -8.4°
Maximum altitude 05:20:29 26° 103° (ESE) 1,565 ? -7.4°
Drops below altitude 10° 05:24:47 10° 157° (SSE) 2,396 ? -6.4°
Sets 05:27:29 0° 170° (S) 3,330 ? -5.8°
